Location: Betra
(48.4113°N, 8.6634°E)
Time: 18:14:48
(UTC+00:00)

Cosmos 1733 Rocket - Pass Details

Date: 23 May 2024
Orbit: 600 x 624 km, 82.5° (Epoch: 16 June)

Event Time Altitude Azimuth Distance (km) Brightness Sun altitude
Rises 00:24:37 0° 346° (NNW) 2,866 7.5 -19.5°
Reaches altitude 10° 00:26:52 10° 341° (NNW) 1,960 6.4 -19.4°
Maximum altitude 00:31:04 51° 266° (W) 763 3.3 -19.2°
Enters shadow 00:31:59 43° 225° (SW) 861 3.3 -19.2°
